Time,TemperatureF,DewpointF,PressureIn,WindDirection,WindDirectionDegrees,WindSpeedMPH,WindSpeedGustMPH,Humidity,HourlyPrecipIn,Conditions,Clouds,dailyrainin,SolarRadiationWatts/m^2,SoftwareType,DateUTC
2013-02-14 00:01:00,54.0,24.0,-100.00,WSW,256,0.0,4.0,31,0.00,,,0.00,1.000000,,2013-02-14 07:01:00,
2013-02-14 00:11:00,54.0,24.0,-100.00,WSW,256,0.0,4.0,31,0.00,,,0.00,1.000000,,2013-02-14 07:11:00,
2013-02-14 00:42:00,54.0,24.0,-100.00,SE,136,0.0,3.0,31,0.00,,,0.00,1.000000,,2013-02-14 07:42:00,
2013-02-14 00:52:00,54.0,24.0,-100.00,SE,136,0.0,3.0,31,0.00,,,0.00,1.000000,,2013-02-14 07:52:00,
2013-02-14 01:01:00,54.0,24.0,-100.00,SE,136,0.0,3.0,31,0.00,,,0.00,1.000000,,2013-02-14 08:01:00,
2013-02-14 01:11:00,54.0,24.0,-100.00,SE,136,0.0,3.0,31,0.00,,,0.00,1.000000,,2013-02-14 08:11:00,
2013-02-14 01:43:00,52.0,25.0,-100.00,ENE,57,1.0,5.0,35,0.00,,,0.00,1.000000,,2013-02-14 08:43:00,
2013-02-14 01:52:00,52.0,25.0,-100.00,ENE,57,1.0,5.0,35,0.00,,,0.00,1.000000,,2013-02-14 08:52:00,
2013-02-14 02:01:00,52.0,25.0,-100.00,ENE,57,1.0,5.0,35,0.00,,,0.00,1.000000,,2013-02-14 09:01:00,
2013-02-14 02:11:00,52.0,25.0,-100.00,ENE,57,1.0,5.0,35,0.00,,,0.00,1.000000,,2013-02-14 09:11:00,
2013-02-14 02:32:00,51.0,26.0,-100.00,NE,54,3.0,6.0,37,0.00,,,0.00,1.000000,,2013-02-14 09:32:00,
2013-02-14 02:42:00,51.0,26.0,-100.00,NE,54,3.0,6.0,37,0.00,,,0.00,1.000000,,2013-02-14 09:42:00,
2013-02-14 02:52:00,51.0,26.0,-100.00,NE,54,3.0,6.0,37,0.00,,,0.00,1.000000,,2013-02-14 09:52:00,
2013-02-14 03:02:00,51.0,26.0,-100.00,NE,54,3.0,6.0,37,0.00,,,0.00,1.000000,,2013-02-14 10:02:00,
2013-02-14 03:11:00,51.0,26.0,-100.00,NE,54,3.0,6.0,37,0.00,,,0.00,1.000000,,2013-02-14 10:11:00,
2013-02-14 03:42:00,50.0,26.0,-100.00,ENE,70,7.0,8.0,39,0.00,,,0.00,1.000000,,2013-02-14 10:42:00,
2013-02-14 03:52:00,50.0,26.0,-100.00,ENE,70,7.0,8.0,39,0.00,,,0.00,1.000000,,2013-02-14 10:52:00,
2013-02-14 04:01:00,50.0,26.0,-100.00,ENE,70,7.0,8.0,39,0.00,,,0.00,1.000000,,2013-02-14 11:01:00,
2013-02-14 04:11:00,50.0,26.0,-100.00,ENE,70,7.0,8.0,39,0.00,,,0.00,1.000000,,2013-02-14 11:11:00,
2013-02-14 04:42:00,50.0,26.0,-100.00,ENE,71,8.0,9.0,39,0.00,,,0.00,1.000000,,2013-02-14 11:42:00,
2013-02-14 04:52:00,50.0,26.0,-100.00,ENE,71,8.0,9.0,39,0.00,,,0.00,1.000000,,2013-02-14 11:52:00,
2013-02-14 05:01:00,50.0,26.0,-100.00,ENE,71,8.0,9.0,39,0.00,,,0.00,1.000000,,2013-02-14 12:01:00,
2013-02-14 05:11:00,50.0,26.0,-100.00,ENE,71,8.0,9.0,39,0.00,,,0.00,1.000000,,2013-02-14 12:11:00,
2013-02-14 05:42:00,48.0,27.0,-100.00,ENE,66,6.0,9.0,44,0.00,,,0.00,1.000000,,2013-02-14 12:42:00,
2013-02-14 05:53:00,48.0,27.0,-100.00,ENE,66,6.0,9.0,44,0.00,,,0.00,1.000000,,2013-02-14 12:53:00,
2013-02-14 06:01:00,48.0,27.0,-100.00,ENE,66,6.0,9.0,44,0.00,,,0.00,1.000000,,2013-02-14 13:01:00,
2013-02-14 06:11:00,48.0,27.0,-100.00,ENE,66,6.0,9.0,44,0.00,,,0.00,1.000000,,2013-02-14 13:11:00,
2013-02-14 06:42:00,48.0,27.0,-100.00,ENE,59,5.0,9.0,44,0.00,,,0.00,1.000000,,2013-02-14 13:42:00,
2013-02-14 06:51:00,48.0,27.0,-100.00,ENE,59,5.0,9.0,44,0.00,,,0.00,1.000000,,2013-02-14 13:51:00,
2013-02-14 07:01:00,48.0,27.0,-100.00,ENE,59,5.0,9.0,44,0.00,,,0.00,1.000000,,2013-02-14 14:01:00,
2013-02-14 07:11:00,48.0,27.0,-100.00,ENE,59,5.0,9.0,44,0.00,,,0.00,1.000000,,2013-02-14 14:11:00,
2013-02-14 07:42:00,41.0,31.0,-100.00,WNW,282,0.0,8.0,66,0.00,,,0.00,1.000000,,2013-02-14 14:42:00,
2013-02-14 07:52:00,41.0,31.0,-100.00,WNW,282,0.0,8.0,66,0.00,,,0.00,1.000000,,2013-02-14 14:52:00,
2013-02-14 08:01:00,41.0,31.0,-100.00,WNW,282,0.0,8.0,66,0.00,,,0.00,1.000000,,2013-02-14 15:01:00,
2013-02-14 08:11:00,41.0,31.0,-100.00,WNW,282,0.0,8.0,66,0.00,,,0.00,1.000000,,2013-02-14 15:11:00,
2013-02-14 08:42:00,48.0,28.0,-100.00,WNW,293,1.0,3.0,46,0.00,,,0.00,56.000000,,2013-02-14 15:42:00,
2013-02-14 08:52:00,48.0,28.0,-100.00,WNW,293,1.0,3.0,46,0.00,,,0.00,56.000000,,2013-02-14 15:52:00,
2013-02-14 09:01:00,48.0,28.0,-100.00,WNW,293,1.0,3.0,46,0.00,,,0.00,56.000000,,2013-02-14 16:01:00,
2013-02-14 09:11:00,48.0,28.0,-100.00,WNW,293,1.0,3.0,46,0.00,,,0.00,56.000000,,2013-02-14 16:11:00,
2013-02-14 09:42:00,55.0,32.0,-100.00,NNW,342,0.0,3.0,42,0.00,,,0.00,256.000000,,2013-02-14 16:42:00,
2013-02-14 09:52:00,55.0,32.0,-100.00,NNW,342,0.0,3.0,42,0.00,,,0.00,256.000000,,2013-02-14 16:52:00,
2013-02-14 10:01:00,55.0,32.0,-100.00,NNW,342,0.0,3.0,42,0.00,,,0.00,256.000000,,2013-02-14 17:01:00,
2013-02-14 10:11:00,55.0,32.0,-100.00,NNW,342,0.0,3.0,42,0.00,,,0.00,256.000000,,2013-02-14 17:11:00,
2013-02-14 10:42:00,61.0,28.0,-100.00,NNE,24,6.0,10.0,28,0.00,,,0.00,463.000000,,2013-02-14 17:42:00,
2013-02-14 10:52:00,61.0,28.0,-100.00,NNE,24,6.0,10.0,28,0.00,,,0.00,463.000000,,2013-02-14 17:52:00,
2013-02-14 11:01:00,61.0,28.0,-100.00,NNE,24,6.0,10.0,28,0.00,,,0.00,463.000000,,2013-02-14 18:01:00,
2013-02-14 11:11:00,61.0,28.0,-100.00,NNE,24,6.0,10.0,28,0.00,,,0.00,463.000000,,2013-02-14 18:11:00,
2013-02-14 11:42:00,68.0,28.0,-100.00,NW,325,8.0,13.0,22,0.00,,,0.00,633.000000,,2013-02-14 18:42:00,
2013-02-14 11:52:00,68.0,28.0,-100.00,NW,325,8.0,13.0,22,0.00,,,0.00,633.000000,,2013-02-14 18:52:00,
2013-02-14 12:01:00,68.0,28.0,-100.00,NW,325,8.0,13.0,22,0.00,,,0.00,633.000000,,2013-02-14 19:01:00,
2013-02-14 12:11:00,68.0,28.0,-100.00,NW,325,8.0,13.0,22,0.00,,,0.00,633.000000,,2013-02-14 19:11:00,
2013-02-14 12:42:00,70.0,26.0,-100.00,North,2,13.0,20.0,19,0.00,,,0.00,748.000000,,2013-02-14 19:42:00,
2013-02-14 12:52:00,70.0,26.0,-100.00,North,2,13.0,20.0,19,0.00,,,0.00,748.000000,,2013-02-14 19:52:00,
2013-02-14 13:01:00,70.0,26.0,-100.00,North,2,13.0,20.0,19,0.00,,,0.00,748.000000,,2013-02-14 20:01:00,
2013-02-14 13:11:00,70.0,26.0,-100.00,North,2,13.0,20.0,19,0.00,,,0.00,748.000000,,2013-02-14 20:11:00,
2013-02-14 13:42:00,72.0,26.0,-100.00,North,354,14.0,23.0,18,0.00,,,0.00,796.000000,,2013-02-14 20:42:00,
2013-02-14 13:52:00,72.0,26.0,-100.00,North,354,14.0,23.0,18,0.00,,,0.00,796.000000,,2013-02-14 20:52:00,
2013-02-14 14:02:00,72.0,26.0,-100.00,North,354,14.0,23.0,18,0.00,,,0.00,796.000000,,2013-02-14 21:02:00,
2013-02-14 14:11:00,72.0,26.0,-100.00,North,354,14.0,23.0,18,0.00,,,0.00,796.000000,,2013-02-14 21:11:00,
2013-02-14 14:42:00,74.0,26.0,-100.00,North,356,13.0,21.0,17,0.00,,,0.00,771.000000,,2013-02-14 21:42:00,
2013-02-14 14:52:00,74.0,26.0,-100.00,North,356,13.0,21.0,17,0.00,,,0.00,771.000000,,2013-02-14 21:52:00,
2013-02-14 15:02:00,74.0,26.0,-100.00,North,356,13.0,21.0,17,0.00,,,0.00,771.000000,,2013-02-14 22:02:00,
2013-02-14 15:11:00,74.0,26.0,-100.00,North,356,13.0,21.0,17,0.00,,,0.00,771.000000,,2013-02-14 22:11:00,
2013-02-14 15:42:00,75.0,27.0,-100.00,North,360,11.0,20.0,17,0.00,,,0.00,667.000000,,2013-02-14 22:42:00,
2013-02-14 15:52:00,75.0,27.0,-100.00,North,360,11.0,20.0,17,0.00,,,0.00,667.000000,,2013-02-14 22:52:00,
2013-02-14 16:01:00,75.0,27.0,-100.00,North,360,11.0,20.0,17,0.00,,,0.00,667.000000,,2013-02-14 23:01:00,
2013-02-14 16:11:00,75.0,27.0,-100.00,North,360,11.0,20.0,17,0.00,,,0.00,667.000000,,2013-02-14 23:11:00,
2013-02-14 16:42:00,75.0,27.0,-100.00,North,350,11.0,19.0,17,0.00,,,0.00,514.000000,,2013-02-14 23:42:00,
2013-02-14 16:52:00,75.0,27.0,-100.00,North,350,11.0,19.0,17,0.00,,,0.00,514.000000,,2013-02-14 23:52:00,
2013-02-14 17:01:00,75.0,27.0,-100.00,North,350,11.0,19.0,17,0.00,,,0.00,514.000000,,2013-02-15 00:01:00,
2013-02-14 17:11:00,75.0,27.0,-100.00,North,350,11.0,19.0,17,0.00,,,0.00,514.000000,,2013-02-15 00:11:00,
2013-02-14 17:42:00,74.0,28.0,-100.00,North,349,8.0,18.0,18,0.00,,,0.00,264.000000,,2013-02-15 00:42:00,
2013-02-14 17:52:00,74.0,28.0,-100.00,North,349,8.0,18.0,18,0.00,,,0.00,264.000000,,2013-02-15 00:52:00,
2013-02-14 18:01:00,74.0,28.0,-100.00,North,349,8.0,18.0,18,0.00,,,0.00,264.000000,,2013-02-15 01:01:00,
2013-02-14 18:11:00,74.0,28.0,-100.00,North,349,8.0,18.0,18,0.00,,,0.00,264.000000,,2013-02-15 01:11:00,
2013-02-14 18:42:00,71.0,27.0,-100.00,North,355,5.0,14.0,19,0.00,,,0.00,70.000000,,2013-02-15 01:42:00,
2013-02-14 18:52:00,71.0,27.0,-100.00,North,355,5.0,14.0,19,0.00,,,0.00,70.000000,,2013-02-15 01:52:00,
2013-02-14 19:01:00,71.0,27.0,-100.00,North,355,5.0,14.0,19,0.00,,,0.00,70.000000,,2013-02-15 02:01:00,
2013-02-14 19:11:00,71.0,27.0,-100.00,North,355,5.0,14.0,19,0.00,,,0.00,70.000000,,2013-02-15 02:11:00,
2013-02-14 19:32:00,68.0,28.0,-100.00,NNW,330,3.0,7.0,22,0.00,,,-99.99,2.000000,,2013-02-15 02:32:00,
2013-02-14 19:42:00,68.0,28.0,-100.00,NNW,330,3.0,7.0,22,0.00,,,-99.99,2.000000,,2013-02-15 02:42:00,
2013-02-14 19:52:00,68.0,28.0,-100.00,NNW,330,3.0,7.0,22,0.00,,,-99.99,2.000000,,2013-02-15 02:52:00,
2013-02-14 20:01:00,68.0,28.0,-100.00,NNW,330,3.0,7.0,22,0.00,,,-99.99,2.000000,,2013-02-15 03:01:00,
2013-02-14 20:11:00,68.0,28.0,-100.00,NNW,330,3.0,7.0,22,0.00,,,-99.99,2.000000,,2013-02-15 03:11:00,
2013-02-14 20:42:00,67.0,27.0,-100.00,North,2,5.0,6.0,22,0.00,,,0.00,1.000000,,2013-02-15 03:42:00,
2013-02-14 20:52:00,67.0,27.0,-100.00,North,2,5.0,6.0,22,0.00,,,0.00,1.000000,,2013-02-15 03:52:00,
2013-02-14 21:01:00,67.0,27.0,-100.00,North,2,5.0,6.0,22,0.00,,,0.00,1.000000,,2013-02-15 04:01:00,
2013-02-14 21:11:00,67.0,27.0,-100.00,North,2,5.0,6.0,22,0.00,,,0.00,1.000000,,2013-02-15 04:11:00,
2013-02-14 21:42:00,62.0,30.0,-100.00,NW,318,4.0,6.0,30,0.00,,,0.00,1.000000,,2013-02-15 04:42:00,
2013-02-14 21:52:00,62.0,30.0,-100.00,NW,318,4.0,6.0,30,0.00,,,0.00,1.000000,,2013-02-15 04:52:00,
2013-02-14 22:01:00,62.0,30.0,-100.00,NW,318,4.0,6.0,30,0.00,,,0.00,1.000000,,2013-02-15 05:01:00,
2013-02-14 22:11:00,62.0,30.0,-100.00,NW,318,4.0,6.0,30,0.00,,,0.00,1.000000,,2013-02-15 05:11:00,
2013-02-14 22:42:00,64.0,26.0,-100.00,North,5,6.0,10.0,24,0.00,,,0.00,1.000000,,2013-02-15 05:42:00,
2013-02-14 22:52:00,64.0,26.0,-100.00,North,5,6.0,10.0,24,0.00,,,0.00,1.000000,,2013-02-15 05:52:00,
2013-02-14 23:01:00,64.0,26.0,-100.00,North,5,6.0,10.0,24,0.00,,,0.00,1.000000,,2013-02-15 06:01:00,
2013-02-14 23:11:00,64.0,26.0,-100.00,North,5,6.0,10.0,24,0.00,,,0.00,1.000000,,2013-02-15 06:11:00,
2013-02-14 23:32:00,64.0,25.0,-100.00,North,6,5.0,12.0,23,0.00,,,0.00,1.000000,,2013-02-15 06:32:00,
2013-02-14 23:42:00,64.0,25.0,-100.00,North,6,5.0,12.0,23,0.00,,,0.00,1.000000,,2013-02-15 06:42:00,
2013-02-14 23:52:00,64.0,25.0,-100.00,North,6,5.0,12.0,23,0.00,,,0.00,1.000000,,2013-02-15 06:52:00,